{"data":{"norad_id":64756,"intl_designator":"2025-147B","name":"STARLINK-34371","alt_names":[],"object_type":"PAYLOAD","status":"ACTIVE","operator":null,"country":"US","launch_date":"2025-07-08","launch_site_code":"AFETR","launch_vehicle":null,"mission":null,"orbit_class":"UNKNOWN","rcs_meters":null,"size_class":null,"mass_kg":null,"dimensions":null,"purposes":["comms"],"wikipedia_slug":null,"has_3d_model":false,"image_url":null,"decayed_at":null,"tle_current":{"epoch":"2026-09-20T14:30:57.279168Z","epoch_age_seconds":118873,"freshness":"FRESH","line1":"1 64756U 25147B   26263.60482962  .00015608  00000+0  51339-3 0  9996","line2":"2 64756  53.1579  56.0081 0001481  81.4321 278.6848 15.31717554 68560","mean_motion":15.31717554,"eccentricity":0.0001481,"inclination_deg":53.1579,"raan_deg":56.0081,"arg_perigee_deg":81.4321,"mean_anomaly_deg":278.6848,"bstar":0.00051339,"rev_number":6856,"period_min":94.012110538233,"perigee_km":469.67335723147,"apogee_km":471.70197909818,"semimajor_km":6848.8246681648,"source":"CELESTRAK","updated_at":"2026-09-21T09:00:35.415012Z"}}}